User: anonymous   Login
Location: Unspecified
(0.0000°N, 0.0000°E)
Time: 22:02:49
(UTC+00:00)
Language:

Hubble Space Telescope - Orbit

View from above orbital plane
View from above orbital plane
View from above satellite
View from above satellite

Ground track
Ground track

The orbit data is extracted from the following two-line orbital elements,

1 20580U 90037B   17144.48054991 +.00000485 +00000-0 +18925-4 0  9997
2 20580 028.4687 164.1678 0002470 279.0542 232.7378 15.08767049286619
Epoch (UTC): 24 May 2017 11:31:59
Eccentricity: 0.0002470
inclination: 28.4687°
perigee height: 538 km
apogee height: 541 km
right ascension of ascending node: 164.1678°
argument of perigee: 279.0542°
revolutions per day: 15.08767049
mean anomaly at epoch: 232.7378°
orbit number at epoch: 28661

The dashed part of the orbit path shows where the satellite is in the earth's shadow,  

DLR